Regional Weather Roundup
Issued by NWS Upton, NY

Home | Current Version | Previous Version | Text Only | Print | Product List | Glossary On
Versions: 1 2 3 4 5 6 7 8 9 10 11 12 13 14 15 16 17 18 19 20 21 22 23 24 25 26 27
000
ASUS41 KOKX 310005
RWROKX

REGIONAL WEATHER ROUNDUP
NATIONAL WEATHER SERVICE NEW YORK NY
800 PM EDT MON MAY 30 2016

NOTE: "FAIR" INDICATES FEW OR NO CLOUDS BELOW 12,000 FEET WITH NO
SIGNIFICANT WEATHER AND/OR OBSTRUCTIONS TO VISIBILITY.

NYZ071-072-176-178-NJZ106-104-310100-
NEW YORK CITY METRO AREA


CITY           SKY/WX    TMP DP  RH WIND       PRES   REMARKS
CENTRAL PARK   CLOUDY    76  68  76 MISG      29.97R
LAGUARDIA APRT CLOUDY    74  72  93 S10       29.93R
KENNEDY INTL   CLOUDY    68  66  93 S17       29.96R
NEWARK/LIBERTY CLOUDY    76  70  82 S13       29.94R
BRNX BOT. GARD   N/A     72  66  83 E2        29.96R
TETERBORO      CLOUDY    78  67  68 SW12      29.92R
$$

NYZ177-179-078>081-310100-
LONG ISLAND NEW YORK

CITY           SKY/WX    TMP DP  RH WIND       PRES   REMARKS
FARMINGDALE    CLOUDY    68  65  90 SW17      29.96R
ISLIP          CLOUDY    67  65  93 S14G23    29.95S FOG
SHIRLEY        CLOUDY    67  65  93 S15       29.97S
RIVERHEAD        N/A     68  66  94 NW3       29.95S
WESTHAMPTON    CLOUDY    64  63  96 SW13G20   29.98S
EAST HAMPTON   CLOUDY    65  64  97 SW12G20   29.96S
MONTAUK POINT    N/A     65  64  97 SW9G18    29.97S
$$

NYZ052-065-067-310100-
HUDSON VALLEY

CITY           SKY/WX    TMP DP  RH WIND       PRES   REMARKS
WHITE PLAINS   CLOUDY    71  68  90 S8        29.94R
NEWBURGH       NOT AVBL
MONTGOMERY     CLOUDY    76  64  66 SW10      29.92R
POUGHKEEPSIE   CLOUDY    79  68  69 VRB6      29.89R
ALBANY         LGT RAIN  71  67  87 S8        29.89R
$$

NJZ001-105-106-008-010-013-015-019>022-104-310100-
NEW JERSEY

CITY           SKY/WX    TMP DP  RH WIND       PRES   REMARKS
NEWARK/LIBERTY CLOUDY    76  70  82 S13       29.94R
TETERBORO      CLOUDY    78  67  68 SW12      29.92R
CALDWELL       CLOUDY    77  66  68 VRB3      29.94R
MORRISTOWN     CLOUDY    77  68  73 SW6       29.95R
SOMERVILLE     CLOUDY    76  67  73 CALM      29.94R
SUSSEX         CLOUDY    74  61  63 CALM      29.95R
ANDOVER          N/A     75  66  73 VRB3      29.96R
TRENTON        CLOUDY    74  68  81 S8        29.95R
MILLVILLE      CLOUDY    69  68  96 S5        29.98R
ATLANTIC CITY  CLOUDY    69  67  93 S5        29.98S
WRIGHTSTOWN    CLOUDY    72  70  94 SW6       29.95R
TOMS RIVER     CLOUDY    70  64  83 S6        29.98R
BELMAR         CLOUDY    72  68  87 S8        29.98R
$$

PAZ047>061-062-071-310100-
EASTERN PENNSYLVANIA

CITY           SKY/WX    TMP DP  RH WIND       PRES   REMARKS
PHILADELPHIA   CLOUDY    73  68  84 S10       29.97R
ALLENTOWN      CLOUDY    75  60  59 CALM      29.96R
SCRANTON       CLOUDY    68  65  90 CALM      29.96S
$$

CTZ002-004>006-009-010-012-RIZ004-006-007-MAZ004-011-015-310100-
SOUTHERN NEW ENGLAND
 IN CT

CITY           SKY/WX    TMP DP  RH WIND       PRES   REMARKS
BRADLEY INTL   MOCLDY    74  67  78 S10       29.91R
HARTFORD       CLOUDY    76  68  76 SW6       29.92R
DANBURY        CLOUDY    73  68  84 S8        29.94S
WTRBRY/OXFORD  CLOUDY    72  66  83 SW5       29.95S
BRIDGEPORT     MOCLDY    69  65  86 SW9       29.94R
MERIDEN        CLOUDY    73  68  84 S9        29.93R
NEW HAVEN      CLOUDY    68  66  93 SW5       29.94S
CHESTER        FOG       68  68 100 SW7       29.95S VSB 1/4
GROTON         FOG       63  63 100 SW3       29.95R VSB 1/4
WILLIMANTIC    CLOUDY    73  67  81 SW6       29.93S

 IN RI

CITY           SKY/WX    TMP DP  RH WIND       PRES   REMARKS
PROVIDENCE     CLOUDY    71  67  87 SW12      29.93S
BLOCK ISLAND   LGT RAIN  61  61 100 SW14      29.96F VSB 3/4
WESTERLY       FOG       66  63  90 SW6       29.96S VSB 1/4

 IN MA

CITY           SKY/WX    TMP DP  RH WIND       PRES   REMARKS
BOSTON         CLOUDY    70  67  90 SW18G24   29.88S
WORCESTER      MOCLDY    70  66  87 SW13      29.94R
WESTFIELD      CLOUDY    75  68  78 S14       29.90R
PROVINCETOWN   FOG       63  62  97 S16       29.91F VSB 3/4
NANTUCKET      LGT RAIN  61  60  97 SW9       29.97S VSB 1/4
$$

ANZ330-335-338-340-345-350-353-355-310100-
COASTAL MARINE OBSERVATIONS


STATION/POSITION TIME  SKY/WX   TEMP    WIND        PRES    VSBY  WAVE
                                AIR SEA DIR/SP/G                  HT/PER
                 (UTC)          (F)     (DEG/KT/KT) (MB)    (MI)  (FT/S)
NY HARB ENTRANCE 2250            63 58  200/ 16/ 19 1013.7          4/ 6
20S FIRE ISLAND  2250            63 61  210/ 12/ 14 1014.3          3/ 7
GREAT SOUTH BAY  2300            65 71  230/ 16/ 21   N/A
23 SSW MONTAUK P 2350            62 59  230/ 14/ 16 1014.2          3/ 5
15 E BARNEGAT LI 2322               61                N/A           4/ 7
HUDSON CANYON    2250            62 59              1015.5          3/ 7
KINGS POINT      2300            67 61                N/A
EXECUTION ROCKS  NOT AVBL
CENTRAL LI SOUND 2345            66     210/ 12/ 14   N/A           1
EASTERN LI SOUND 2300            60 55  230/  6/  8   N/A
ROBBINS REEF     2300            72                   N/A
$$


>>>>>>>>>>>>>>>>>>>>>>>>>>>> KEY <<<<<<<<<<<<<<<<<<<<<<<<<<<
>                                                          <
>     SKY/WX - SKY CONDITION/PRESENT WEATHER               <
>     TMP    - TEMPERATURE IN FAHRENHEIT                   <
>     DP     - DEWPOINT IN FAHRENHEIT                      <
>     RH     - RELATIVE HUMIDITY IN PERCENT                <
>     WIND   - DIRECTION AND SPEED IN MPH                  <
>     PRES   - MEAN SEA LEVEL PRESSURE IN INCHES OF HG     <
>     WCI    - WIND CHILL INDEX                            <
>     VSB    - VISIBILITY IN MILES                         <
>     HX     - HEAT INDEX                                  <
>     TC     - TEMPERATURE IN CELSIUS                      <
>     VRB    - VARIABLE WIND DIRECTION                     <
>                                                          <
>>>>>>>>>>>>>>>>>>>>>>>>>>>> KEY <<<<<<<<<<<<<<<<<<<<<<<<<<<






USA.gov is the U.S. government's official web portal to all federal, state and local government web resources and services.